QPF
0.00 0.00 0.00 0.00 0.00 0.00 0.00 0.00 0.00 0.00 0.00 0.00 0.00 0.00 0.00 0.00 0.00 0.00 0.00 0.00 0.00 0.00 0.00 0.00 0.00 0.00 0.00 0.00 0.00 0.00 0.00 0.00 0.00 0.00 0.00 0.00 0.00 0.00 0.00 0.00 0.00 0.00 0.00
0.00 0.00 0.01 0.00 0.00 0.00 0.00 0.00 0.00 0.00 0.00 0.00 0.00 0.00 0.00 0.00 0.00 0.00 0.00 0.00 0.00 0.00 0.00 0.00 0.00 0.00 0.00 0.00 0.00 0.00 0.00 0.00 0.00 0.00 0.00 0.00 0.00 0.00 0.00 0.00 0.00 0.00 0.00
0.00 0.01 0.02 0.02 0.01 0.00 0.00 0.00 0.00 0.00 0.00 0.00 0.00 0.00 0.00 0.00 0.00 0.00 0.00 0.00 0.00 0.01 0.00 0.00 0.00 0.00 0.00 0.00 0.01 0.00 0.00 0.00 0.00 0.00 0.00 0.00 0.00 0.00 0.00 0.00 0.00 0.00 0.00
0.00 0.00 0.02 0.03 0.01 0.00 0.00 0.00 0.00 0.00 0.00 0.00 0.00 0.00 0.00 0.00 0.00 0.00 0.00 0.00 0.01 0.01 0.00 0.00 0.00 0.00 0.01 0.02 0.01 0.01 0.03 0.01 0.00 0.00 0.00 0.00 0.00 0.00 0.00 0.00 0.00 0.00 0.00
0.00 0.00 0.02 0.06 0.04 0.01 0.00 0.00 0.00 0.00 0.00 0.00 0.00 0.00 0.00 0.00 0.00 0.00 0.00 0.00 0.00 0.00 0.00 0.00 0.00 0.01 0.03 0.02 0.01 0.01 0.02 0.02 0.00 0.00 0.00 0.00 0.00 0.00 0.00 0.00 0.00 0.00 0.00
0.00 0.02 0.11 0.14 0.07 0.01 0.00 0.00 0.00 0.00 0.00 0.00 0.00 0.00 0.00 0.00 0.00 0.00 0.00 0.00 0.00 0.00 0.00 0.00 0.00 0.00 0.02 0.01 0.02 0.02 0.03 0.03 0.00 0.00 0.00 0.00 0.00 0.00 0.00 0.00 0.00 0.00 0.00
0.02 0.08 0.17 0.19 0.13 0.03 0.00 0.00 0.00 0.00 0.00 0.00 0.00 0.00 0.00 0.01 0.01 0.01 0.04 0.01 0.00 0.00 0.00 0.00 0.00 0.00 0.00 0.00 0.02 0.02 0.00 0.01 0.00 0.00 0.00 0.00 0.00 0.00 0.00 0.00 0.00 0.00 0.00
0.08 0.12 0.19 0.16 0.10 0.02 0.00 0.00 0.00 0.00 0.00 0.00 0.03 0.03 0.04 0.06 0.03 0.03 0.08 0.01 0.00 0.00 0.00 0.00 0.00 0.00 0.00 0.00 0.00 0.00 0.00 0.00 0.00 0.00 0.00 0.00 0.00 0.00 0.00 0.00 0.00 0.00 0.00
0.01 0.02 0.17 0.09 0.04 0.01 0.00 0.00 0.00 0.00 0.00 0.04 0.07 0.06 0.10 0.09 0.03 0.02 0.04 0.00 0.00 0.00 0.00 0.00 0.00 0.00 0.00 0.00 0.00 0.00 0.00 0.00 0.00 0.00 0.00 0.00 0.00 0.00 0.00 0.00 0.00 0.00 0.00
0.03 0.11 0.20 0.08 0.01 0.00 0.00 0.00 0.01 0.00 0.03 0.10 0.11 0.11 0.08 0.03 0.00 0.00 0.00 0.00 0.00 0.00 0.00 0.00 0.00 0.00 0.00 0.00 0.00 0.00 0.00 0.00 0.00 0.00 0.00 0.00 0.00 0.00 0.00 0.00 0.00 0.00 0.00
0.08 0.09 0.05 0.01 0.01 0.01 0.03 0.05 0.05 0.13 0.15 0.12 0.14 0.09 0.02 0.01 0.00 0.00 0.00 0.00 0.00 0.00 0.00 0.00 0.00 0.00 0.00 0.00 0.00 0.00 0.00 0.00 0.00 0.00 0.00 0.00 0.00 0.00 0.00 0.00 0.00 0.00 0.00
0.07 0.09 0.08 0.06 0.04 0.05 0.09 0.10 0.15 0.18 0.17 0.10 0.06 0.02 0.01 0.00 0.00 0.00 0.00 0.00 0.00 0.00 0.00 0.00 0.00 0.00 0.00 0.00 0.00 0.00 0.00 0.00 0.00 0.00 0.00 0.00 0.00 0.00 0.00 0.00 0.00 0.00 0.00
0.08 0.10 0.08 0.05 0.04 0.04 0.05 0.06 0.03 0.04 0.04 0.05 0.03 0.00 0.00 0.00 0.00 0.00 0.00 0.00 0.00 0.00 0.00 0.00 0.00 0.00 0.00 0.00 0.00 0.00 0.00 0.00 0.00 0.00 0.00 0.00 0.00 0.00 0.00 0.00 0.00 0.01 0.01
0.11 0.12 0.10 0.05 0.02 0.01 0.00 0.01 0.03 0.03 0.02 0.01 0.00 0.00 0.00 0.00 0.00 0.00 0.00 0.00 0.00 0.00 0.00 0.00 0.00 0.00 0.00 0.00 0.00 0.00 0.00 0.00 0.00 0.00 0.00 0.00 0.00 0.00 0.00 0.00 0.00 0.02 0.02
0.11 0.08 0.03 0.01 0.00 0.00 0.00 0.00 0.01 0.02 0.02 0.00 0.00 0.00 0.00 0.00 0.00 0.00 0.00 0.00 0.00 0.00 0.00 0.00 0.00 0.00 0.00 0.00 0.00 0.00 0.00 0.00 0.00 0.00 0.00 0.00 0.00 0.00 0.00 0.00 0.01 0.02 0.04
0.03 0.01 0.01 0.00 0.00 0.00 0.00 0.01 0.01 0.01 0.01 0.00 0.00 0.00 0.00 0.00 0.00 0.00 0.00 0.00 0.00 0.00 0.00 0.00 0.00 0.00 0.00 0.00 0.00 0.00 0.00 0.00 0.00 0.00 0.00 0.00 0.00 0.00 0.00 0.00 0.00 0.01 0.05
0.00 0.00 0.00 0.00 0.00 0.01 0.01 0.02 0.02 0.01 0.00 0.00 0.00 0.00 0.00 0.00 0.00 0.00 0.00 0.00 0.00 0.00 0.00 0.00 0.00 0.00 0.00 0.00 0.00 0.00 0.00 0.00 0.00 0.00 0.00 0.00 0.00 0.00 0.00 0.00 0.00 0.00 0.01
0.00 0.00 0.01 0.02 0.03 0.03 0.02 0.02 0.03 0.01 0.00 0.00 0.00 0.00 0.00 0.00 0.00 0.00 0.00 0.00 0.00 0.00 0.00 0.00 0.00 0.00 0.00 0.00 0.00 0.00 0.00 0.00 0.00 0.00 0.00 0.00 0.00 0.00 0.00 0.00 0.00 0.00 0.00
0.00 0.00 0.00 0.00 0.00 0.02 0.03 0.05 0.03 0.01 0.00 0.00 0.00 0.00 0.00 0.00 0.00 0.00 0.00 0.00 0.00 0.00 0.00 0.00 0.00 0.00 0.00 0.00 0.00 0.00 0.00 0.00 0.00 0.00 0.00 0.00 0.00 0.00 0.00 0.00 0.00 0.00 0.00
0.00 0.00 0.00 0.01 0.03 0.04 0.03 0.02 0.04 0.02 0.00 0.00 0.00 0.00 0.00 0.00 0.00 0.00 0.00 0.00 0.00 0.00 0.00 0.00 0.00 0.00 0.00 0.00 0.00 0.00 0.00 0.00 0.00 0.00 0.00 0.00 0.00 0.00 0.00 0.00 0.00 0.00 0.00
0.00 0.00 0.00 0.00 0.01 0.01 0.00 0.01 0.01 0.01 0.00 0.00 0.00 0.00 0.00 0.00 0.00 0.00 0.00 0.00 0.00 0.00 0.00 0.00 0.00 0.00 0.00 0.00 0.00 0.00 0.00 0.00 0.00 0.00 0.00 0.00 0.00 0.00 0.00 0.00 0.00 0.00 0.00
0.00 0.00 0.00 0.00 0.00 0.00 0.00 0.01 0.00 0.00 0.00 0.00 0.00 0.00 0.00 0.00 0.00 0.00 0.00 0.00 0.00 0.00 0.00 0.00 0.00 0.00 0.00 0.00 0.00 0.00 0.00 0.00 0.00 0.00 0.00 0.00 0.00 0.00 0.00 0.00 0.00 0.00 0.00
0.00 0.00 0.00 0.00 0.00 0.00 0.00 0.00 0.00 0.00 0.00 0.00 0.00 0.00 0.00 0.00 0.00 0.00 0.00 0.00 0.00 0.00 0.00 0.00 0.00 0.00 0.00 0.00 0.00 0.00 0.00 0.00 0.00 0.00 0.00 0.00 0.00 0.00 0.00 0.00 0.00 0.00 0.00
0.00 0.00 0.00 0.00 0.00 0.00 0.00 0.00 0.00 0.00 0.00 0.00 0.00 0.00 0.00 0.00 0.00 0.00 0.00 0.00 0.00 0.00 0.00 0.00 0.00 0.00 0.00 0.00 0.00 0.00 0.00 0.00 0.00 0.00 0.00 0.00 0.00 0.00 0.00 0.00 0.00 0.00 0.00
0.00 0.00 0.00 0.00 0.00 0.00 0.00 0.00 0.00 0.00 0.00 0.00 0.00 0.00 0.00 0.00 0.00 0.00 0.00 0.00 0.00 0.00 0.00 0.00 0.00 0.00 0.00 0.00 0.00 0.00 0.00 0.00 0.00 0.00 0.00 0.00 0.00 0.00 0.00 0.00 0.00 0.00 0.00
0.00 0.00 0.00 0.00 0.00 0.00 0.00 0.00 0.00 0.00 0.00 0.00 0.00 0.00 0.00 0.00 0.00 0.00 0.00 0.00 0.00 0.00 0.00 0.00 0.00 0.00 0.00 0.00 0.00 0.00 0.00 0.00 0.00 0.00 0.00 0.00 0.00 0.00 0.00 0.00 0.00 0.00 0.00
MSLP
1010.32 1011.08 1011.77 1012.36 1012.91 1013.53 1013.81 1014.15 1014.50 1014.80 1015.12 1015.41 1015.48 1015.82 1016.01 1016.09 1016.15 1016.27 1016.40 1016.46 1016.59 1016.58 1016.60 1016.58 1016.60 1016.53 1016.75 1016.86 1016.94 1017.03 1017.19 1017.37 1017.39 1016.48 1015.94 1015.10 1014.76 1014.33 1013.92 1013.43 1013.00 1012.53 1011.75
1009.48 1010.40 1011.07 1011.65 1012.50 1013.20 1013.66 1013.73 1013.88 1014.30 1014.54 1014.90 1015.16 1015.45 1015.65 1015.81 1015.85 1015.91 1015.93 1015.85 1015.95 1016.06 1016.14 1016.25 1016.08 1015.99 1016.22 1016.36 1016.52 1016.57 1016.57 1016.47 1016.69 1016.15 1015.58 1015.21 1014.83 1014.10 1013.66 1013.14 1012.45 1011.76 1011.27
1008.74 1009.59 1010.57 1011.40 1012.10 1012.48 1012.74 1013.14 1013.53 1013.83 1014.09 1014.60 1014.78 1014.94 1015.14 1015.35 1015.43 1015.40 1015.46 1015.52 1015.52 1015.43 1015.41 1015.58 1015.54 1015.62 1015.63 1015.76 1016.06 1016.04 1015.89 1015.81 1015.92 1015.93 1015.14 1014.61 1014.32 1013.68 1013.09 1012.48 1011.83 1011.16 1010.45
1007.78 1008.72 1009.55 1010.14 1010.86 1011.47 1011.99 1012.53 1012.98 1013.35 1013.77 1013.97 1014.23 1014.30 1014.51 1014.79 1014.94 1014.91 1014.97 1014.96 1014.94 1014.87 1014.86 1015.05 1015.08 1015.15 1015.00 1014.99 1015.28 1015.25 1015.16 1015.13 1015.08 1015.21 1014.77 1014.19 1013.81 1012.91 1012.62 1011.99 1010.94 1010.39 1009.44
1006.81 1007.61 1008.36 1009.20 1010.13 1011.01 1011.06 1011.53 1012.32 1012.84 1012.91 1013.55 1013.54 1013.73 1013.92 1014.34 1014.39 1014.44 1014.58 1014.69 1014.57 1014.46 1014.44 1014.42 1014.41 1014.59 1014.38 1014.45 1014.40 1014.49 1014.62 1014.52 1014.48 1014.35 1014.01 1013.47 1013.00 1012.56 1012.01 1011.30 1010.45 1009.57 1008.66
1005.92 1006.22 1008.22 1009.99 1010.86 1011.22 1010.94 1010.91 1011.46 1012.12 1012.60 1012.86 1013.18 1013.33 1013.53 1013.91 1013.94 1014.00 1014.08 1014.27 1014.29 1014.34 1014.45 1014.36 1014.18 1014.06 1013.78 1013.50 1013.34 1013.56 1013.61 1013.58 1013.62 1013.49 1013.22 1013.06 1012.32 1011.76 1011.19 1010.95 1010.14 1009.14 1007.15
1005.30 1006.46 1007.68 1008.49 1009.93 1010.24 1010.71 1010.84 1010.66 1011.05 1012.08 1012.45 1012.56 1013.16 1013.50 1013.69 1013.69 1013.42 1013.59 1013.62 1013.95 1014.08 1014.30 1014.27 1014.07 1013.66 1013.51 1013.36 1013.03 1013.05 1013.03 1012.86 1012.82 1012.66 1012.58 1012.13 1011.79 1011.18 1010.61 1009.99 1009.44 1008.62 1007.15
1005.26 1006.43 1007.28 1007.24 1008.94 1009.57 1009.55 1009.89 1010.16 1010.74 1011.22 1012.11 1012.42 1012.63 1012.98 1013.44 1013.05 1012.79 1013.49 1013.33 1013.32 1013.68 1013.74 1013.75 1013.69 1013.23 1012.92 1012.99 1013.03 1012.85 1012.80 1012.64 1012.30 1012.08 1011.84 1011.29 1010.94 1010.47 1010.02 1009.19 1008.40 1007.02 1005.62
1004.72 1005.95 1006.64 1007.39 1008.54 1008.47 1008.73 1009.03 1009.58 1010.52 1011.19 1011.77 1011.82 1012.29 1012.60 1012.81 1012.25 1012.42 1013.01 1012.86 1012.99 1013.00 1013.21 1013.37 1013.16 1012.91 1012.69 1012.78 1012.98 1012.93 1012.75 1012.44 1011.82 1011.41 1011.07 1010.65 1010.11 1009.38 1008.72 1008.28 1007.14 1005.75 1003.69
1004.73 1005.66 1006.43 1007.13 1007.40 1008.07 1008.74 1009.43 1009.94 1010.33 1010.75 1011.39 1011.33 1011.47 1011.81 1012.16 1012.24 1012.32 1012.65 1012.57 1012.74 1012.88 1012.82 1013.04 1012.62 1012.55 1012.62 1012.83 1013.19 1013.05 1012.81 1012.32 1011.80 1011.03 1010.56 1009.86 1009.35 1008.50 1007.78 1007.30 1006.01 1004.23 1002.94
1005.34 1005.96 1006.38 1007.19 1007.88 1008.35 1008.97 1009.65 1010.43 1011.30 1011.08 1011.23 1011.55 1011.54 1011.31 1011.88 1011.81 1012.05 1012.34 1012.28 1012.45 1012.50 1012.80 1013.03 1012.48 1012.20 1012.68 1013.05 1013.20 1013.13 1012.54 1012.06 1011.52 1011.02 1010.32 1009.63 1008.88 1007.97 1006.91 1005.98 1004.87 1003.39 1001.57
1005.59 1006.42 1006.99 1007.59 1008.10 1008.57 1009.02 1009.25 1009.09 1010.64 1011.16 1011.11 1010.83 1010.99 1011.15 1011.14 1011.47 1011.80 1012.21 1012.40 1012.51 1012.38 1012.77 1012.96 1012.25 1012.30 1012.87 1013.33 1013.25 1012.85 1012.22 1011.83 1011.50 1011.02 1010.39 1009.56 1008.76 1007.69 1006.34 1004.94 1003.17 1001.32 999.48
1005.90 1006.74 1007.45 1008.18 1008.21 1008.27 1008.37 1008.91 1009.06 1010.16 1011.18 1010.99 1011.08 1011.04 1011.07 1011.47 1011.72 1011.97 1012.49 1012.54 1012.37 1012.43 1012.81 1012.59 1012.33 1012.57 1013.20 1013.24 1012.92 1012.44 1012.07 1011.83 1011.60 1011.11 1010.44 1009.55 1008.71 1007.59 1006.15 1004.58 1002.36 1000.44 998.49
1006.49 1007.32 1007.78 1007.97 1007.94 1007.87 1007.34 1008.80 1009.80 1010.27 1011.35 1010.32 1010.53 1011.07 1011.44 1011.66 1012.19 1012.52 1012.51 1012.30 1012.17 1012.75 1012.66 1012.37 1012.38 1013.01 1013.10 1012.94 1012.73 1012.43 1012.09 1011.84 1011.65 1011.32 1010.60 1009.62 1008.55 1007.41 1006.16 1004.82 1002.98 1000.87 999.09
1006.22 1007.27 1007.84 1008.48 1008.88 1008.97 1009.53 1009.28 1010.19 1010.73 1011.30 1010.68 1010.59 1011.03 1011.37 1012.06 1012.52 1012.30 1012.03 1012.21 1012.61 1012.58 1012.44 1012.72 1013.09 1013.25 1013.25 1013.27 1013.17 1012.78 1012.18 1011.87 1011.69 1011.32 1010.69 1009.68 1008.65 1007.60 1006.44 1005.00 1003.56 1001.84 1000.19
1006.74 1007.14 1007.67 1007.50 1007.97 1009.46 1010.02 1010.74 1010.82 1010.89 1011.22 1010.93 1010.50 1010.83 1012.02 1012.22 1011.94 1011.73 1011.96 1012.14 1012.25 1012.30 1012.82 1013.15 1013.43 1013.78 1013.98 1013.80 1013.59 1013.16 1012.65 1012.25 1011.69 1011.30 1010.69 1009.90 1008.97 1007.98 1006.94 1005.69 1004.16 1003.10 1001.24
1005.87 1006.91 1006.71 1007.71 1008.17 1008.81 1009.21 1010.27 1010.91 1011.74 1011.59 1011.25 1011.31 1011.21 1011.16 1011.32 1011.72 1012.18 1011.75 1011.64 1012.08 1012.79 1013.12 1013.46 1013.80 1014.01 1014.17 1014.01 1013.74 1013.51 1013.22 1012.56 1011.77 1011.34 1010.77 1010.07 1009.22 1008.32 1007.39 1006.43 1005.19 1003.62 1002.15
1006.11 1006.10 1006.32 1007.03 1007.78 1008.65 1009.14 1009.81 1010.39 1010.77 1011.12 1011.48 1011.40 1011.58 1011.58 1011.76 1012.03 1012.11 1012.00 1011.99 1012.56 1013.17 1013.41 1013.70 1013.99 1014.07 1014.16 1014.13 1013.88 1013.73 1013.35 1012.78 1012.22 1011.66 1011.09 1010.40 1009.60 1008.85 1007.89 1006.93 1005.94 1004.88 1003.61
1005.66 1005.89 1006.09 1006.52 1007.12 1008.00 1008.83 1009.30 1009.93 1010.59 1010.85 1011.23 1011.72 1011.62 1011.77 1011.86 1012.19 1012.16 1012.21 1012.51 1013.13 1013.59 1013.78 1013.77 1014.00 1014.18 1014.21 1014.06 1013.94 1013.78 1013.60 1013.31 1012.76 1012.20 1011.53 1010.76 1009.93 1009.25 1008.33 1007.50 1006.67 1005.49 1004.36
1005.90 1005.93 1006.29 1006.86 1007.49 1008.10 1008.74 1009.18 1009.71 1010.11 1010.72 1011.10 1011.39 1011.66 1012.03 1012.20 1012.42 1012.60 1012.79 1012.94 1013.21 1013.55 1013.86 1013.92 1013.97 1014.06 1014.09 1014.07 1014.03 1013.95 1013.80 1013.56 1013.10 1012.55 1011.94 1011.19 1010.42 1009.59 1008.88 1008.08 1007.09 1006.18 1005.39
1006.13 1006.40 1006.25 1006.97 1007.49 1008.10 1008.40 1008.86 1009.40 1009.94 1010.47 1010.87 1011.10 1011.43 1011.59 1012.13 1012.46 1012.85 1012.99 1013.22 1013.32 1013.50 1013.74 1013.76 1013.86 1014.13 1014.22 1014.23 1014.22 1014.19 1014.10 1013.87 1013.47 1012.88 1012.31 1011.60 1010.93 1010.22 1009.21 1008.30 1007.51 1006.60 1006.09
1005.93 1006.04 1006.44 1006.99 1007.46 1007.88 1008.32 1008.79 1009.30 1009.74 1010.37 1010.94 1011.38 1011.54 1011.66 1011.91 1012.09 1012.64 1013.06 1012.97 1013.00 1013.17 1013.38 1013.62 1013.97 1014.23 1014.38 1014.42 1014.43 1014.41 1014.34 1014.11 1013.63 1013.13 1012.57 1011.90 1011.14 1010.46 1009.72 1009.04 1008.23 1007.34 1006.76
1006.11 1006.53 1006.81 1007.23 1007.54 1007.99 1008.63 1008.99 1009.30 1009.82 1010.24 1010.47 1011.20 1011.32 1011.42 1011.81 1012.05 1012.19 1012.70 1012.77 1012.85 1013.10 1013.49 1013.78 1014.04 1014.37 1014.53 1014.53 1014.47 1014.45 1014.39 1014.20 1013.87 1013.45 1012.97 1012.26 1011.64 1011.03 1010.45 1009.89 1009.24 1008.50 1007.91
1006.38 1006.61 1006.88 1007.24 1007.68 1008.12 1008.53 1009.03 1009.11 1009.42 1009.68 1009.82 1010.28 1010.59 1010.92 1011.23 1011.65 1012.00 1012.36 1012.61 1012.83 1013.16 1013.43 1013.73 1014.01 1014.25 1014.49 1014.53 1014.45 1014.38 1014.25 1014.02 1013.70 1013.36 1012.96 1012.49 1011.96 1011.37 1010.88 1010.47 1009.88 1009.29 1008.79
1006.67 1006.95 1007.16 1007.40 1007.79 1008.06 1008.39 1008.66 1008.94 1009.03 1009.05 1009.32 1009.73 1010.10 1010.44 1010.88 1011.38 1011.73 1012.07 1012.41 1012.64 1013.03 1013.39 1013.69 1013.91 1014.01 1014.20 1014.29 1014.31 1014.20 1014.04 1013.85 1013.53 1013.19 1012.82 1012.54 1012.18 1011.76 1011.41 1011.19 1010.71 1010.11 1009.63
1006.80 1006.95 1007.12 1007.49 1007.83 1008.09 1008.40 1008.53 1008.66 1008.72 1008.84 1008.99 1009.24 1009.60 1010.03 1010.50 1010.88 1011.30 1011.69 1012.13 1012.51 1012.85 1013.21 1013.54 1013.71 1013.84 1013.98 1014.07 1014.07 1014.11 1013.98 1013.71 1013.40 1013.17 1012.93 1012.77 1012.49 1012.24 1012.00 1011.76 1011.39 1011.07 1010.84
Thickness
5787 5781 5774 5767 5759 5751 5747 5744 5739 5735 5730 5724 5721 5715 5710 5705 5702 5698 5694 5690 5684 5679 5675 5672 5666 5664 5657 5650 5646 5641 5635 5632 5631 5635 5636 5638 5639 5641 5643 5647 5650 5657 5667
5788 5779 5772 5766 5755 5746 5741 5739 5738 5733 5728 5721 5716 5710 5705 5701 5698 5694 5690 5687 5680 5675 5669 5664 5660 5659 5652 5643 5637 5633 5628 5624 5620 5623 5626 5624 5626 5630 5635 5638 5642 5646 5653
5789 5780 5768 5758 5751 5745 5742 5737 5732 5728 5723 5715 5710 5706 5701 5696 5693 5690 5685 5679 5674 5670 5666 5660 5655 5649 5644 5637 5628 5624 5621 5616 5610 5609 5617 5619 5618 5620 5625 5628 5634 5639 5643
5792 5780 5769 5761 5754 5746 5740 5734 5728 5723 5716 5711 5706 5703 5698 5692 5688 5684 5680 5674 5670 5666 5660 5652 5647 5642 5640 5634 5625 5618 5613 5609 5606 5601 5605 5610 5610 5614 5614 5617 5628 5629 5638
5792 5781 5771 5761 5751 5740 5739 5731 5723 5717 5714 5708 5704 5700 5695 5688 5684 5679 5672 5665 5663 5660 5655 5649 5645 5638 5636 5627 5621 5613 5608 5606 5603 5599 5599 5603 5604 5603 5604 5609 5615 5619 5629
5791 5785 5763 5750 5728 5728 5728 5724 5722 5714 5707 5703 5697 5694 5690 5684 5678 5673 5668 5661 5655 5651 5644 5639 5637 5633 5630 5626 5621 5612 5608 5602 5598 5597 5596 5591 5595 5595 5597 5592 5596 5602 5623
5790 5777 5756 5750 5735 5733 5724 5719 5720 5714 5703 5697 5694 5687 5681 5675 5671 5669 5664 5657 5648 5642 5637 5632 5628 5626 5622 5616 5613 5606 5603 5599 5596 5594 5590 5588 5585 5584 5584 5583 5584 5588 5601
5783 5769 5758 5723 5730 5730 5725 5719 5715 5707 5702 5691 5685 5681 5675 5666 5667 5663 5652 5649 5644 5638 5633 5627 5621 5621 5618 5611 5604 5598 5594 5590 5588 5587 5584 5582 5579 5574 5572 5576 5578 5585 5596
5779 5763 5757 5747 5733 5732 5726 5719 5710 5697 5687 5681 5680 5676 5671 5662 5663 5657 5648 5644 5638 5635 5629 5622 5618 5615 5611 5603 5595 5591 5587 5584 5584 5584 5581 5577 5572 5571 5571 5570 5575 5580 5599
5765 5757 5749 5742 5739 5729 5717 5707 5696 5684 5677 5672 5672 5672 5665 5657 5653 5647 5639 5637 5632 5625 5622 5615 5613 5610 5602 5592 5583 5582 5580 5579 5578 5580 5578 5576 5571 5569 5569 5566 5570 5582 5591
5749 5743 5739 5730 5721 5714 5704 5694 5682 5662 5659 5661 5658 5659 5660 5651 5648 5641 5633 5631 5624 5619 5612 5604 5604 5603 5591 5582 5576 5573 5575 5575 5575 5575 5576 5575 5572 5568 5569 5568 5570 5581 5595
5739 5729 5722 5716 5706 5700 5692 5685 5683 5663 5657 5660 5661 5658 5651 5648 5639 5633 5625 5617 5613 5609 5600 5593 5597 5592 5579 5570 5569 5569 5571 5571 5570 5571 5569 5568 5566 5565 5567 5569 5579 5596 5612
5728 5717 5707 5698 5695 5691 5688 5681 5677 5666 5654 5651 5647 5645 5643 5635 5628 5623 5613 5609 5605 5598 5587 5588 5588 5579 5568 5564 5564 5566 5566 5564 5564 5564 5564 5563 5560 5560 5562 5567 5583 5599 5618
5708 5697 5689 5685 5685 5685 5689 5676 5663 5657 5642 5650 5646 5637 5628 5622 5614 5606 5603 5601 5596 5582 5581 5581 5577 5565 5561 5559 5557 5557 5558 5558 5557 5556 5557 5559 5558 5556 5559 5562 5574 5593 5609
5697 5687 5682 5675 5668 5665 5659 5660 5650 5638 5630 5633 5632 5625 5620 5609 5599 5597 5596 5590 5578 5575 5575 5570 5561 5554 5551 5547 5545 5546 5549 5550 5549 5550 5551 5554 5554 5553 5555 5559 5569 5583 5597
5681 5677 5672 5673 5669 5652 5643 5633 5625 5625 5619 5616 5616 5613 5599 5593 5592 5589 5581 5575 5572 5570 5565 5557 5551 5543 5538 5536 5536 5538 5541 5543 5544 5545 5547 5549 5550 5551 5550 5554 5560 5569 5589
5681 5670 5670 5659 5651 5642 5637 5623 5616 5601 5598 5599 5597 5597 5595 5589 5579 5570 5572 5571 5566 5557 5552 5546 5540 5535 5531 5530 5530 5529 5531 5535 5538 5539 5540 5544 5546 5546 5548 5549 5549 5564 5579
5666 5663 5660 5652 5642 5631 5623 5615 5609 5602 5595 5589 5586 5581 5576 5572 5567 5564 5564 5561 5554 5545 5540 5536 5532 5529 5526 5524 5524 5522 5524 5527 5530 5532 5534 5537 5540 5540 5543 5545 5547 5553 5564
5658 5652 5646 5640 5632 5622 5613 5608 5600 5592 5586 5579 5573 5571 5564 5562 5557 5556 5553 5549 5539 5534 5529 5529 5525 5522 5521 5519 5518 5517 5516 5517 5520 5522 5526 5530 5534 5535 5538 5541 5542 5549 5556
5640 5638 5634 5627 5620 5613 5607 5601 5591 5584 5576 5571 5566 5561 5553 5550 5545 5542 5539 5535 5531 5526 5522 5521 5518 5515 5514 5512 5511 5509 5509 5509 5511 5514 5518 5521 5526 5529 5533 5535 5540 5545 5548
5628 5623 5623 5614 5607 5600 5596 5591 5582 5575 5567 5561 5557 5552 5547 5540 5535 5529 5526 5523 5521 5518 5514 5513 5511 5507 5505 5503 5502 5501 5501 5502 5503 5507 5510 5514 5517 5521 5527 5534 5539 5544 5543
5620 5618 5612 5605 5598 5593 5588 5580 5573 5565 5557 5550 5543 5540 5536 5533 5530 5523 5517 5516 5515 5511 5508 5506 5502 5498 5497 5495 5494 5493 5493 5494 5497 5500 5503 5508 5512 5516 5521 5525 5529 5537 5539
5607 5602 5597 5591 5587 5580 5571 5566 5561 5554 5548 5545 5536 5534 5530 5526 5521 5519 5512 5511 5508 5504 5500 5497 5493 5490 5488 5488 5488 5487 5486 5487 5489 5491 5494 5499 5504 5507 5510 5513 5518 5520 5526
5592 5589 5585 5579 5573 5567 5561 5555 5553 5549 5545 5543 5538 5532 5528 5522 5516 5511 5506 5504 5501 5497 5494 5489 5486 5483 5481 5480 5480 5479 5480 5481 5484 5486 5489 5492 5495 5499 5502 5505 5508 5514 5516
5579 5574 5571 5567 5561 5558 5555 5551 5547 5545 5543 5539 5534 5529 5521 5516 5511 5506 5501 5497 5494 5490 5486 5482 5479 5477 5474 5473 5472 5471 5472 5474 5476 5479 5481 5484 5486 5489 5492 5494 5498 5502 5506
5570 5567 5565 5559 5554 5550 5546 5543 5540 5537 5534 5532 5528 5521 5516 5511 5506 5501 5496 5492 5487 5483 5479 5476 5473 5470 5468 5466 5466 5465 5466 5467 5469 5471 5472 5474 5476 5478 5480 5482 5486 5488 5490